Hourly Weather Barnstable

Today, 19 April, Monday

Time Temperature Precipitation Wind Pressure Humidity
00:00 +7°C° 0 mm 3 mps 756 mmHg 84%
01:00 +7°C° 0 mm 2 mps 756 mmHg 86%
02:00 +6°C° 0 mm 2 mps 757 mmHg 87%
03:00 +6°C° 0 mm 2 mps 757 mmHg 88%
04:00 +6°C° 0 mm 2 mps 757 mmHg 90%
05:00 +7°C° 0 mm 2 mps 757 mmHg 84%
06:00 +9°C° 0 mm 1 mps 757 mmHg 78%
07:00 +10°C° 0 mm 1 mps 758 mmHg 73%
08:00 +12°C° 0 mm 1 mps 758 mmHg 65%
09:00 +14°C° 0 mm 1 mps 758 mmHg 57%
10:00 +15°C° 0 mm 1 mps 758 mmHg 50%
11:00 +16°C° 0 mm 2 mps 757 mmHg 48%
12:00 +16°C° 0 mm 2 mps 757 mmHg 45%
13:00 +17°C° 0 mm 3 mps 757 mmHg 43%
14:00 +16°C° 0 mm 3 mps 757 mmHg 44%
15:00 +15°C° 0 mm 4 mps 756 mmHg 46%
16:00 +14°C° 0 mm 5 mps 756 mmHg 47%
17:00 +13°C° 0 mm 4 mps 757 mmHg 55%
18:00 +12°C° 0 mm 4 mps 757 mmHg 62%
19:00 +10°C° 0 mm 4 mps 757 mmHg 69%
20:00 +10°C° 0 mm 4 mps 757 mmHg 73%
21:00 +9°C° 0 mm 3 mps 757 mmHg 76%
22:00 +9°C° 0 mm 3 mps 758 mmHg 80%
23:00 +9°C° 0 mm 3 mps 757 mmHg 82%

Tomorrow, 20 April, Tuesday

Time Temperature Precipitation Wind Pressure Humidity
00:00 +8°C° 0 mm 3 mps 757 mmHg 85%
01:00 +8°C° 0 mm 3 mps 757 mmHg 88%
02:00 +8°C° 0 mm 3 mps 757 mmHg 89%
03:00 +8°C° 0 mm 3 mps 757 mmHg 90%
04:00 +7°C° 0 mm 3 mps 757 mmHg 90%
05:00 +9°C° 0 mm 3 mps 757 mmHg 85%
06:00 +10°C° 0 mm 3 mps 758 mmHg 80%
07:00 +11°C° 0 mm 3 mps 758 mmHg 74%
08:00 +13°C° 0 mm 4 mps 758 mmHg 67%
09:00 +14°C° 0 mm 5 mps 758 mmHg 60%
10:00 +15°C° 0 mm 5 mps 758 mmHg 52%
11:00 +16°C° 0 mm 6 mps 758 mmHg 53%
12:00 +16°C° 0 mm 7 mps 758 mmHg 53%
13:00 +16°C° 0 mm 8 mps 758 mmHg 54%
14:00 +16°C° 0 mm 7 mps 758 mmHg 56%
15:00 +15°C° 0 mm 7 mps 758 mmHg 58%
16:00 +15°C° 0 mm 6 mps 758 mmHg 61%
17:00 +14°C° 0 mm 5 mps 759 mmHg 60%
18:00 +13°C° 0 mm 5 mps 760 mmHg 60%
19:00 +12°C° 0 mm 4 mps 760 mmHg 60%
20:00 +11°C° 0 mm 3 mps 760 mmHg 63%
21:00 +10°C° 0 mm 2 mps 761 mmHg 65%
22:00 +10°C° 0 mm 1 mps 761 mmHg 68%
23:00 +10°C° 0 mm 1 mps 761 mmHg 68%

Day after tomorrow, 21 April, Wednesday

Time Temperature Precipitation Wind Pressure Humidity
00:00 +9°C° 0 mm 2 mps 761 mmHg 69%
01:00 +9°C° 0 mm 2 mps 760 mmHg 69%
02:00 +9°C° 0 mm 3 mps 760 mmHg 72%
03:00 +8°C° 0 mm 4 mps 759 mmHg 74%
04:00 +9°C° 0 mm 5 mps 759 mmHg 77%
05:00 +10°C° 0 mm 5 mps 759 mmHg 75%
06:00 +11°C° 0 mm 6 mps 758 mmHg 74%
07:00 +12°C° 0 mm 7 mps 758 mmHg 72%
08:00 +13°C° 0 mm 8 mps 757 mmHg 68%
09:00 +15°C° 0 mm 9 mps 756 mmHg 64%
10:00 +17°C° 0 mm 9 mps 756 mmHg 59%
11:00 +17°C° 0 mm 10 mps 755 mmHg 59%
12:00 +17°C° 0 mm 10 mps 754 mmHg 58%
13:00 +17°C° 0 mm 10 mps 753 mmHg 57%
14:00 +16°C° 0 mm 10 mps 752 mmHg 64%
15:00 +15°C° 0 mm 9 mps 751 mmHg 71%
16:00 +13°C° 0 mm 9 mps 750 mmHg 78%
17:00 +12°C° 0.9 mm 9 mps 750 mmHg 82%
18:00 +10°C° 0.9 mm 8 mps 750 mmHg 87%
19:00 +9°C° 0.9 mm 8 mps 749 mmHg 92%
20:00 +7°C° 0.9 mm 8 mps 750 mmHg 87%
21:00 +5°C° 0.9 mm 8 mps 750 mmHg 83%
22:00 +2°C° 0.9 mm 8 mps 750 mmHg 78%
23:00 +1°C° 0 mm 9 mps 750 mmHg 75%

22 April, Thursday

Time Temperature Precipitation Wind Pressure Humidity
00:00 +1°C° 0 mm 9 mps 750 mmHg 72%
01:00 0°C° 0 mm 9 mps 750 mmHg 69%
02:00 0°C° 0 mm 9 mps 751 mmHg 71%
03:00 -1°C° 0 mm 9 mps 751 mmHg 72%
04:00 -1°C° 0 mm 9 mps 751 mmHg 74%
05:00 -2°C° 0 mm 10 mps 752 mmHg 69%
06:00 0°C° 0 mm 10 mps 753 mmHg 64%
07:00 0°C° 0 mm 10 mps 753 mmHg 60%
08:00 +1°C° 0 mm 10 mps 754 mmHg 51%
09:00 +2°C° 0 mm 10 mps 754 mmHg 43%
10:00 +5°C° 0 mm 10 mps 754 mmHg 34%
11:00 +5°C° 0 mm 10 mps 755 mmHg 35%
12:00 +5°C° 0 mm 10 mps 755 mmHg 35%
13:00 +6°C° 0 mm 10 mps 755 mmHg 36%
14:00 +6°C° 0 mm 10 mps 755 mmHg 36%
15:00 +6°C° 0 mm 10 mps 756 mmHg 36%
16:00 +6°C° 0 mm 9 mps 756 mmHg 37%
17:00 +5°C° 0 mm 9 mps 757 mmHg 40%
18:00 +3°C° 0 mm 9 mps 757 mmHg 43%
19:00 +3°C° 0 mm 9 mps 758 mmHg 46%
20:00 +2°C° 0 mm 9 mps 758 mmHg 49%
21:00 +2°C° 0 mm 9 mps 759 mmHg 52%
22:00 +1°C° 0 mm 9 mps 759 mmHg 54%
23:00 +1°C° 0 mm 9 mps 759 mmHg 56%

23 April, Friday

Time Temperature Precipitation Wind Pressure Humidity
00:00 +1°C° 0 mm 9 mps 759 mmHg 57%
01:00 +1°C° 0 mm 9 mps 759 mmHg 59%
02:00 +1°C° 0 mm 9 mps 759 mmHg 61%
03:00 +1°C° 0 mm 9 mps 759 mmHg 63%
04:00 +1°C° 0 mm 9 mps 760 mmHg 64%
05:00 +1°C° 0 mm 9 mps 760 mmHg 62%
06:00 +2°C° 0 mm 9 mps 760 mmHg 59%
07:00 +2°C° 0 mm 10 mps 760 mmHg 57%
08:00 +5°C° 0 mm 9 mps 760 mmHg 52%
09:00 +7°C° 0 mm 9 mps 760 mmHg 48%
10:00 +10°C° 0 mm 8 mps 760 mmHg 43%
11:00 +11°C° 0 mm 8 mps 760 mmHg 41%
12:00 +13°C° 0 mm 8 mps 760 mmHg 40%
13:00 +15°C° 0 mm 7 mps 760 mmHg 38%
14:00 +14°C° 0 mm 7 mps 760 mmHg 40%
15:00 +14°C° 0 mm 7 mps 760 mmHg 43%
16:00 +14°C° 0 mm 7 mps 760 mmHg 45%
17:00 +11°C° 0 mm 7 mps 760 mmHg 55%
18:00 +10°C° 0 mm 7 mps 760 mmHg 64%
19:00 +8°C° 0 mm 7 mps 761 mmHg 74%
20:00 +8°C° 0 mm 7 mps 761 mmHg 76%
21:00 +8°C° 0 mm 6 mps 761 mmHg 78%
22:00 +7°C° 0 mm 6 mps 761 mmHg 81%
23:00 +7°C° 0 mm 5 mps 761 mmHg 81%

24 April, Saturday

Time Temperature Precipitation Wind Pressure Humidity
00:00 +7°C° 0 mm 5 mps 761 mmHg 80%
01:00 +7°C° 0 mm 5 mps 761 mmHg 80%
02:00 +7°C° 0 mm 5 mps 761 mmHg 81%
03:00 +7°C° 0 mm 5 mps 761 mmHg 81%
04:00 +7°C° 0 mm 4 mps 761 mmHg 82%
05:00 +8°C° 0 mm 5 mps 761 mmHg 78%
06:00 +9°C° 0 mm 5 mps 761 mmHg 74%
07:00 +10°C° 0 mm 5 mps 761 mmHg 70%
08:00 +11°C° 0 mm 6 mps 761 mmHg 65%
09:00 +12°C° 0 mm 7 mps 761 mmHg 60%
10:00 +13°C° 0 mm 8 mps 761 mmHg 55%
11:00 +13°C° 0 mm 9 mps 760 mmHg 57%
12:00 +13°C° 0 mm 9 mps 760 mmHg 59%
13:00 +13°C° 0 mm 10 mps 759 mmHg 62%
14:00 +12°C° 0 mm 10 mps 759 mmHg 63%
15:00 +12°C° 0 mm 9 mps 758 mmHg 64%
16:00 +12°C° 0 mm 9 mps 758 mmHg 65%
17:00 +11°C° 0 mm 9 mps 758 mmHg 69%
18:00 +10°C° 0 mm 9 mps 757 mmHg 73%
19:00 +8°C° 0 mm 9 mps 757 mmHg 77%
20:00 +8°C° 0.3 mm 9 mps 757 mmHg 82%
21:00 +9°C° 0.3 mm 8 mps 757 mmHg 87%
22:00 +9°C° 0.3 mm 8 mps 756 mmHg 92%
23:00 +9°C° 0.3 mm 8 mps 756 mmHg 88%
Show more